"2010/01/01"," * "," * "," * "
"2010/01/02"," * "," * "," * "
"2010/01/03"," * "," * "," * "
"2010/01/04"," * "," * "," * "
"2010/01/05"," * "," * "," * "
"2010/01/06"," * "," * "," * "
"2010/01/07"," * "," * "," * "
"2010/01/08"," * "," * "," * "
"2010/01/09",  3.0,  4.4,  1.8
"2010/01/10",  3.0,  4.5,  1.7
"2010/01/11",  2.6,  3.1,  2.2
"2010/01/12",  2.6,  3.0,  2.1
"2010/01/13",  2.8,  3.7,  2.1
"2010/01/14",  1.6,  2.6,  0.8
"2010/01/15",  1.3,  2.4,  0.5
"2010/01/16",  1.3,  2.4,  0.4
"2010/01/17",  1.1,  2.2,  0.2
"2010/01/18",  0.9,  1.8,  0.3
"2010/01/19",  1.3,  2.8,  0.3
"2010/01/20",  2.5,  4.2,  1.0
"2010/01/21",  5.1,  6.4,  3.8
"2010/01/22",  4.1,  5.2,  2.9
"2010/01/23",  3.8,  5.2,  2.6
"2010/01/24",  3.3,  4.8,  2.0
"2010/01/25",  3.4,  4.7,  2.2
"2010/01/26",  3.1,  4.7,  1.8
"2010/01/27",  2.7,  4.3,  1.3
"2010/01/28",  3.8,  5.2,  2.7
"2010/01/29",  3.7,  4.5,  2.9
"2010/01/30",  3.9,  5.7,  2.3
"2010/01/31",  4.5,  6.2,  3.2
"2010/02/01",  4.0,  5.1,  3.3
"2010/02/02",  3.4,  4.4,  2.4
"2010/02/03",  3.2,  4.4,  2.0
"2010/02/04",  3.0,  4.4,  1.8
"2010/02/05",  2.6,  4.1,  1.3
"2010/02/06",  2.4,  3.5,  1.5
"2010/02/07",  2.2,  3.9,  0.8
"2010/02/08",  2.7,  4.5,  1.1
"2010/02/09",  4.2,  6.4,  2.3
"2010/02/10",  5.4,  5.8,  4.8
"2010/02/11",  4.4,  4.9,  3.4
"2010/02/12",  3.1,  3.5,  2.8
"2010/02/13",  2.9,  3.2,  2.5
"2010/02/14",  3.0,  4.7,  1.8
"2010/02/15",  3.5,  4.0,  3.1
"2010/02/16",  3.2,  3.7,  2.8
"2010/02/17",  2.9,  3.6,  2.3
"2010/02/18",  2.9,  3.8,  2.3
"2010/02/19",  2.4,  3.7,  1.3
"2010/02/20",  3.1,  5.5,  1.3
"2010/02/21",  3.5,  5.3,  1.8
"2010/02/22",  3.9,  4.8,  3.2
"2010/02/23",  4.6,  6.7,  2.7
"2010/02/24",  5.9,  8.0,  4.4
"2010/02/25",  6.4,  8.3,  4.6
"2010/02/26",  8.5,  9.3,  7.6
"2010/02/27",  8.7,  9.2,  7.5
"2010/02/28",  6.3,  7.5,  5.4
"2010/03/01",  6.3,  7.7,  5.2
"2010/03/02",  5.7,  6.7,  5.0
"2010/03/03",  6.4,  8.6,  4.7
"2010/03/04",  6.1,  6.8,  5.1
"2010/03/05",  7.8, 10.3,  5.9
"2010/03/06",  8.5,  9.0,  7.8
"2010/03/07",  7.0,  7.8,  5.8
"2010/03/08",  6.2,  7.8,  4.9
"2010/03/09",  5.1,  6.1,  3.5
"2010/03/10",  4.6,  5.7,  3.2
"2010/03/11",  5.7,  8.7,  3.2
"2010/03/12",  6.9,  9.3,  4.7
"2010/03/13",  8.1, 10.1,  6.1
"2010/03/14",  8.2, 10.2,  6.3
"2010/03/15",  8.2,  9.7,  6.7
"2010/03/16", 10.8, 12.5,  9.4
"2010/03/17",  9.0, 10.2,  8.1
"2010/03/18",  8.7, 10.4,  7.3
"2010/03/19",  8.6, 10.6,  7.2
"2010/03/20",  9.2, 11.4,  6.8
"2010/03/21", 11.3, 12.9,  9.9
"2010/03/22",  9.5, 11.8,  7.2
"2010/03/23",  9.2, 10.0,  8.5
"2010/03/24",  8.1,  9.1,  6.5
"2010/03/25",  6.2,  6.7,  5.8
"2010/03/26",  6.5,  7.5,  5.7
"2010/03/27",  7.2,  9.5,  5.2
"2010/03/28",  7.0,  7.8,  6.3
"2010/03/29",  6.1,  7.0,  5.2
"2010/03/30",  6.0,  8.9,  3.5
"2010/03/31",  7.1,  9.1,  4.8
"2010/04/01",  8.4, 10.4,  6.2
"2010/04/02", 10.3, 11.1,  9.4
"2010/04/03",  9.6, 11.3,  8.5
"2010/04/04",  8.5,  9.3,  7.5
"2010/04/05",  8.6,  9.7,  7.7
"2010/04/06", 10.9, 13.5,  8.8
"2010/04/07", 10.1, 11.7,  8.6
"2010/04/08",  9.1, 11.4,  7.3
"2010/04/09",  9.5, 11.3,  7.8
"2010/04/10", 10.9, 13.4,  8.8
"2010/04/11", 13.1, 15.5, 11.3
"2010/04/12", 10.6, 13.1,  8.6
"2010/04/13", 10.5, 13.5,  7.8
"2010/04/14", 12.6, 14.5, 11.0
"2010/04/15", 10.1, 12.2,  8.9
"2010/04/16",  8.0,  8.9,  7.0
"2010/04/17",  6.5,  7.3,  5.3
"2010/04/18",  8.5, 11.4,  5.7
"2010/04/19", 10.8, 13.5,  8.5
"2010/04/20", 11.6, 12.9, 10.4
"2010/04/21", 13.7, 16.5, 11.4
"2010/04/22", 11.1, 14.0,  9.1
"2010/04/23",  9.2,  9.7,  8.8
"2010/04/24", 10.6, 13.4,  8.3
"2010/04/25", 11.5, 14.4,  8.8
"2010/04/26", 12.2, 14.6,  9.8
"2010/04/27", 11.6, 12.5, 10.9
"2010/04/28", 11.6, 12.8, 10.7
"2010/04/29", 13.5, 15.3, 12.1
"2010/04/30", 13.8, 16.4, 11.5
"2010/05/01", 14.5, 17.2, 12.1
"2010/05/02", 15.3, 17.9, 12.8
"2010/05/03", 15.5, 17.8, 13.3
"2010/05/04", 16.5, 18.7, 14.6
"2010/05/05", 17.7, 20.1, 15.5
"2010/05/06", 18.4, 20.4, 16.6
"2010/05/07", 17.8, 18.5, 17.1
"2010/05/08", 18.1, 20.1, 16.3
"2010/05/09", 18.3, 20.8, 16.0
"2010/05/10", 18.1, 19.8, 16.3
"2010/05/11", 17.0, 18.0, 16.1
"2010/05/12", 16.4, 18.2, 15.3
"2010/05/13", 16.5, 19.3, 14.0
"2010/05/14", 16.9, 18.5, 15.3
"2010/05/15", 16.5, 18.5, 14.8
"2010/05/16", 17.2, 19.6, 15.1
"2010/05/17", 18.3, 21.1, 15.8
"2010/05/18", 19.0, 21.4, 16.7
"2010/05/19", 18.7, 19.4, 18.0
"2010/05/20", 18.2, 18.9, 17.5
"2010/05/21", 19.9, 22.8, 17.6
"2010/05/22", 20.2, 21.9, 18.5
"2010/05/23", 18.7, 19.9, 17.5
"2010/05/24", 17.3, 17.9, 16.7
"2010/05/25", 19.3, 21.7, 17.3
"2010/05/26", 18.3, 19.9, 16.7
"2010/05/27", 17.4, 19.6, 15.8
"2010/05/28", 18.3, 20.2, 16.9
"2010/05/29", 17.2, 18.4, 16.4
"2010/05/30", 16.3, 17.5, 15.3
"2010/05/31", 17.3, 19.9, 14.9
"2010/06/01", 18.3, 20.8, 16.1
"2010/06/02", 18.9, 21.4, 16.5
"2010/06/03", 19.5, 22.1, 17.0
"2010/06/04", 20.2, 22.1, 18.4
"2010/06/05", 19.7, 21.4, 18.5
"2010/06/06", 20.0, 22.6, 17.7
"2010/06/07", 20.6, 22.8, 18.4
"2010/06/08", 20.1, 20.9, 19.5
"2010/06/09", 19.3, 20.1, 18.7
"2010/06/10", 20.4, 23.0, 18.1
"2010/06/11", 21.2, 22.7, 19.6
"2010/06/12", 22.0, 24.7, 19.8
"2010/06/13", 22.2, 23.6, 21.0
"2010/06/14", 20.5, 21.9, 19.3
"2010/06/15", 21.0, 23.2, 19.1
"2010/06/16", 22.5, 24.0, 21.4
"2010/06/17", 23.5, 25.6, 21.7
"2010/06/18", 23.3, 24.6, 22.4
"2010/06/19", 22.5, 23.6, 21.5
"2010/06/20", 22.9, 24.0, 22.0
"2010/06/21", 23.0, 24.2, 22.1
"2010/06/22", 23.5, 25.0, 22.3
"2010/06/23", 22.9, 23.6, 22.4
"2010/06/24", 22.9, 24.3, 21.8
"2010/06/25", 23.1, 25.0, 21.4
"2010/06/26", 23.2, 24.1, 22.1
"2010/06/27", 23.4, 24.2, 22.6
"2010/06/28", 24.5, 26.4, 23.0
"2010/06/29", 24.3, 25.1, 23.5
"2010/06/30", 23.0, 23.5, 22.7
"2010/07/01", 23.4, 25.0, 22.2
"2010/07/02", 24.3, 25.8, 23.2
"2010/07/03", 24.8, 26.0, 23.7
"2010/07/04", 24.7, 26.0, 23.7
"2010/07/05", 24.9, 26.0, 23.7
"2010/07/06", 24.7, 25.6, 24.0
"2010/07/07", 24.2, 24.8, 23.6
"2010/07/08", 25.0, 27.0, 23.1
"2010/07/09", 25.0, 25.6, 24.2
"2010/07/10", 25.2, 27.2, 23.4
"2010/07/11", 25.1, 25.8, 24.3
"2010/07/12", 24.7, 25.1, 24.1
"2010/07/13", 23.3, 24.5, 22.1
"2010/07/14", 23.4, 25.5, 21.6
"2010/07/15", 24.8, 26.1, 23.8
"2010/07/16", 25.6, 27.4, 24.0
"2010/07/17", 26.5, 28.4, 24.9
"2010/07/18", 26.9, 28.6, 25.3
"2010/07/19", 27.3, 29.1, 25.6
"2010/07/20", 27.4, 28.9, 26.0
"2010/07/21", 27.8, 29.6, 26.2
"2010/07/22", 28.1, 29.8, 26.5
"2010/07/23", 28.6, 30.5, 27.1
"2010/07/24", 28.9, 30.6, 27.5
"2010/07/25", 28.6, 30.7, 23.6
"2010/07/26", 27.9, 29.7, 26.5
"2010/07/27", 28.2, 29.9, 26.6
"2010/07/28", 28.3, 29.8, 26.9
"2010/07/29", 26.9, 28.0, 25.8
"2010/07/30", 26.0, 27.0, 25.2
"2010/07/31", 27.1, 28.8, 25.5
"2010/08/01", 27.6, 28.9, 26.5
"2010/08/02", 27.8, 28.9, 26.7
"2010/08/03", 27.8, 29.1, 26.6
"2010/08/04", 28.0, 29.3, 26.7
"2010/08/05", 28.6, 30.5, 26.9
"2010/08/06", 28.6, 29.7, 27.4
"2010/08/07", 28.4, 30.3, 26.6
"2010/08/08", 28.7, 30.3, 27.2
"2010/08/09", 27.8, 28.8, 27.2
"2010/08/10", 27.7, 29.1, 26.3
"2010/08/11", 28.1, 29.5, 26.9
"2010/08/12", 27.9, 28.7, 27.1
"2010/08/13", 26.9, 27.4, 26.5
"2010/08/14", 26.4, 27.1, 25.8
"2010/08/15", 27.5, 29.4, 26.0
"2010/08/16", 28.5, 30.3, 26.9
"2010/08/17", 28.9, 30.2, 27.6
"2010/08/18", 29.0, 30.5, 27.7
"2010/08/19", 28.5, 29.3, 27.6
"2010/08/20", 27.9, 28.9, 26.9
"2010/08/21", 27.8, 29.3, 26.6
"2010/08/22", 28.5, 30.5, 26.8
"2010/08/23", 29.0, 30.8, 27.4
"2010/08/24", 29.2, 30.8, 27.6
"2010/08/25", 29.2, 30.9, 27.6
"2010/08/26", 29.2, 30.7, 27.6
"2010/08/27", 29.1, 30.5, 27.9
"2010/08/28", 29.2, 30.9, 27.7
"2010/08/29", 29.0, 30.1, 27.7
"2010/08/30", 28.8, 30.0, 27.7
"2010/08/31", 29.0, 30.6, 27.5
"2010/09/01", 29.2, 30.6, 27.8
"2010/09/02", 29.2, 30.6, 27.9
"2010/09/03", 29.3, 30.9, 27.7
"2010/09/04", 29.3, 30.6, 28.0
"2010/09/05", 29.2, 30.5, 27.8
"2010/09/06", 29.3, 30.5, 28.0
"2010/09/07", 28.9, 29.9, 27.9
"2010/09/08", 26.4, 28.9, 23.3
"2010/09/09", 24.5, 25.6, 23.8
"2010/09/10", 24.6, 25.9, 23.2
"2010/09/11", 25.4, 27.0, 23.9
"2010/09/12", 25.5, 26.1, 24.9
"2010/09/13", 25.7, 26.8, 24.7
"2010/09/14", 25.6, 26.6, 24.7
"2010/09/15", 24.2, 25.2, 23.7
"2010/09/16", 21.3, 23.7, 19.3
"2010/09/17", 21.6, 22.9, 20.6
"2010/09/18", 22.9, 24.2, 21.8
"2010/09/19", 23.3, 24.5, 22.2
"2010/09/20", 23.6, 24.1, 23.0
"2010/09/21", 24.1, 25.5, 23.0
"2010/09/22", 24.8, 26.0, 23.8
"2010/09/23", 22.8, 24.7, 20.4
"2010/09/24", 20.0, 20.5, 19.4
"2010/09/25", 18.7, 19.5, 18.1
"2010/09/26", 18.4, 19.7, 17.1
"2010/09/27", 18.3, 19.2, 17.9
"2010/09/28", 18.7, 19.2, 18.1
"2010/09/29", 19.3, 20.2, 18.5
"2010/09/30", 18.8, 19.6, 18.3
"2010/10/01", 19.0, 20.1, 18.2
"2010/10/02", 19.5, 20.4, 18.6
"2010/10/03", 19.3, 20.2, 18.4
"2010/10/04", 19.6, 20.0, 19.2
"2010/10/05", 20.2, 21.2, 19.4
"2010/10/06", 20.4, 21.2, 19.6
"2010/10/07", 20.0, 20.7, 19.3
"2010/10/08", 19.9, 20.7, 19.2
"2010/10/09", 19.1, 19.7, 18.6
"2010/10/10", 18.7, 19.3, 18.2
"2010/10/11", 19.2, 20.5, 18.2
"2010/10/12", 19.3, 19.8, 18.8
"2010/10/13", 19.7, 20.3, 19.2
"2010/10/14", 19.5, 19.9, 19.1
"2010/10/15", 19.5, 20.3, 18.9
"2010/10/16", 19.6, 20.3, 19.1
"2010/10/17", 19.3, 19.9, 18.8
"2010/10/18", 18.6, 19.2, 18.0
"2010/10/19", 18.0, 18.4, 17.6
"2010/10/20", 17.8, 18.1, 17.6
"2010/10/21", 17.9, 18.1, 17.7
"2010/10/22", 17.5, 17.8, 17.1
"2010/10/23", 16.9, 17.7, 16.1
"2010/10/24", 16.3, 16.8, 15.8
"2010/10/25", 16.2, 16.8, 15.7
"2010/10/26", 16.5, 16.8, 15.4
"2010/10/27", 15.0, 15.6, 14.5
"2010/10/28", 13.8, 14.6, 13.1
"2010/10/29", 13.4, 13.9, 13.0
"2010/10/30", 13.3, 13.7, 13.0
"2010/10/31", 13.7, 14.4, 13.1
"2010/11/01", 14.7, 15.1, 14.2
"2010/11/02", 14.0, 14.6, 13.3
"2010/11/03", 13.6, 14.4, 12.8
"2010/11/04", 12.5, 13.4, 11.7
"2010/11/05", 11.6, 12.6, 10.5
"2010/11/06", 11.8, 12.8, 10.7
"2010/11/07", 12.7, 13.5, 12.0
"2010/11/08", 12.7, 13.7, 11.9
"2010/11/09", 12.9, 13.5, 12.3
"2010/11/10"," * "," * "," * "
"2010/11/11"," * "," * "," * "
"2010/11/12", 11.7, 12.6, 10.9
"2010/11/13", 11.8, 12.6, 11.0
"2010/11/14", 12.3, 12.9, 11.9
"2010/11/15", 11.5, 12.0, 10.8
"2010/11/16", 10.5, 11.1,  9.8
"2010/11/17", 10.2, 10.4, 10.1
"2010/11/18", 10.5, 11.1, 10.2
"2010/11/19", 10.2, 11.0,  9.4
"2010/11/20", 10.7, 11.5, 10.0
"2010/11/21", 10.8, 11.7,  9.8
"2010/11/22", 11.9, 12.5, 11.4
"2010/11/23", 12.3, 12.7, 11.9
"2010/11/24", 11.4, 11.9, 10.6
"2010/11/25", 10.1, 10.8,  9.3
"2010/11/26", 10.8, 11.4, 10.4
"2010/11/27", 11.0, 11.5, 10.5
"2010/11/28", 10.2, 11.0,  9.3
"2010/11/29",  9.8, 10.5,  9.0
"2010/11/30",  9.1,  9.8,  8.1
"2010/12/01",  9.3, 10.2,  8.7
"2010/12/02",  9.1, 10.1,  8.0
"2010/12/03", 12.7, 15.1,  9.8
"2010/12/04", 11.2, 12.8, 10.1
"2010/12/05",  9.4, 10.1,  8.6
"2010/12/06",  9.0,  9.9,  8.4
"2010/12/07",  8.9,  9.6,  8.2
"2010/12/08",  9.1,  9.6,  8.6
"2010/12/09",  8.4,  9.2,  7.9
"2010/12/10",  7.7,  8.3,  7.0
"2010/12/11",  8.1,  8.8,  7.3
"2010/12/12",  8.6,  9.2,  8.0
"2010/12/13",  8.6,  8.9,  8.5
"2010/12/14",  8.5,  9.0,  8.3
"2010/12/15",  8.3,  8.8,  7.9
"2010/12/16",  7.5,  8.1,  6.7
"2010/12/17",  6.1,  6.9,  5.1
"2010/12/18",  5.7,  6.7,  4.7
"2010/12/19",  5.6,  6.4,  4.6
"2010/12/20",  6.4,  7.3,  5.7
"2010/12/21",  6.0,  7.0,  4.7
"2010/12/22",  8.5,  9.8,  7.0
"2010/12/23",  7.8,  8.8,  7.0
"2010/12/24",  6.5,  7.5,  5.4
"2010/12/25",  5.0,  5.9,  4.2
"2010/12/26",  4.0,  4.9,  3.0
"2010/12/27",  3.7,  4.7,  2.7
"2010/12/28",  3.3,  4.3,  2.2
"2010/12/29",  3.9,  5.0,  3.0
"2010/12/30",  2.9,  3.7,  2.3
"2010/12/31",  3.3,  4.5,  2.4
